Terminal Aerodrome Forecast
Issued by NWS

Home | Current Version | Previous Version | Text Only | Print | Product List | Glossary On
Versions: 1 2 3 4 5 6 7 8 9 10 11 12 13 14 15 16 17 18 19 20 21 22 23 24 25 26 27 28 29 30 31 32 33 34 35 36 37 38 39 40 41 42 43 44 45 46 47 48 49 50
000
FTUS41 KCTP 092350
TAFUNV
TAF
KUNV 092350Z 1000/1024 25008KT 3SM -SN BR SCT014 OVC021
     FM100100 27007KT 2SM -SHSN BR BKN015 OVC025
     FM100900 27009KT P6SM BKN025
     FM101200 26008KT P6SM OVC050=

USA.gov is the U.S. government's official web portal to all federal, state and local government web resources and services.